Roanoke, VA

2:41 PM EST on January 18, 2017 (GMT -0500)
Roanoke Regional-Woodrum

Weather History for KROA - September, 2013

Change the Weather History Date:

Wednesday, September 18, 2013

  Actual Average Record
Temperature  
Mean Temperature 59 °F 67 °F  
Max Temperature 69 °F 78 °F 94 °F (1954)
Min Temperature 48 °F 57 °F 38 °F (1943)
Degree Days  
Heating Degree Days 6 2  
Month to date heating degree days 15 11  
Since 1 July heating degree days 16 12  
Cooling Degree Days 0 4  
Month to date cooling degree days 120 108  
Year to date cooling degree days 1180 1155  
Growing Degree Days 8 (Base 50)    
Moisture  
Dew Point 50 °F    
Average Humidity 72    
Maximum Humidity 89    
Minimum Humidity 55    
Precipitation  
Precipitation 0.00 in 0.14 in 6.13 in (1944)
Month to date precipitation T 2.47  
Year to date precipitation 42.31 30.60  
Snow  
Snow 0.00 in - - ()
Month to date snowfall 0.0  
Since 1 July snowfall 0.0  
Since 1 September snowfall 0.0  
Snow Depth 0.00 in    
Sea Level Pressure  
Sea Level Pressure 30.29 in    
Wind  
Wind Speed 4 mph (SE)    
Max Wind Speed 12 mph    
Max Gust Speed 16 mph    
Visibility 10 miles    
Events      
T = Trace of Precipitation, MM = Missing Value Source: NWS Daily Summary

Daily Weather History Graph

Daily Weather History Graph

Search for Another Location

Airport or City:

Trip Planner

Search our weather history database for the weather conditions in past years. The results will help you decide how hot, cold, wet, or windy it might be!

Date:

Astronomy

Sep. 18, 2013 Rise Set
Actual Time 7:04 AM EDT 7:22 PM EDT
Civil Twilight 6:38 AM EDT 7:48 PM EDT
Nautical Twilight 6:07 AM EDT 8:19 PM EDT
Astronomical Twilight 5:36 AM EDT 8:50 PM EDT
Moon 6:45 PM EDT 6:05 AM EDT
Length of Visible Light 13h 10m
Length of Day
12h 18m
Waxing Gibbous, 99% of the Moon is Illuminated
Sep 18
Waxing Gibbous
Sep 19
Full
Sep 26
Last Quarter
Oct 4
New
Oct 11
First Quarter

Hourly Weather History & Observations

Time (EDT) Temp. Dew Point Humidity Pressure Visibility Wind Dir Wind Speed Gust Speed Precip Events Conditions
12:54 AM 55.0 °F 48.9 °F 80% 30.35 in 10.0 mi Calm Calm - N/A   Clear
1:54 AM 52.0 °F 48.0 °F 86% 30.35 in 10.0 mi Calm Calm - N/A   Clear
2:54 AM 52.0 °F 48.0 °F 86% 30.34 in 10.0 mi Calm Calm - N/A   Overcast
3:54 AM 53.1 °F 48.0 °F 83% 30.32 in 10.0 mi Calm Calm - N/A   Overcast
4:54 AM 52.0 °F 48.9 °F 89% 30.32 in 10.0 mi Calm Calm - N/A   Clear
5:54 AM 50.0 °F 46.9 °F 89% 30.33 in 10.0 mi Calm Calm - N/A   Clear
6:54 AM 48.0 °F 45.0 °F 89% 30.34 in 10.0 mi Calm Calm - N/A   Clear
7:14 AM 48.2 °F 46.4 °F 93% 30.35 in 10.0 mi Calm Calm - N/A   Mostly Cloudy
7:54 AM 50.0 °F 46.9 °F 89% 30.35 in 10.0 mi Calm Calm - N/A   Mostly Cloudy
8:26 AM 51.8 °F 48.2 °F 88% 30.36 in 10.0 mi Calm Calm - N/A   Scattered Clouds
8:54 AM 53.1 °F 48.0 °F 83% 30.36 in 10.0 mi Calm Calm - N/A   Scattered Clouds
9:54 AM 55.9 °F 48.9 °F 77% 30.35 in 10.0 mi Variable 3.5 mph - N/A   Partly Cloudy
10:54 AM 60.1 °F 48.9 °F 67% 30.34 in 10.0 mi SE 8.1 mph - N/A   Scattered Clouds
11:15 AM 60.8 °F 48.2 °F 63% 30.34 in 10.0 mi ESE 6.9 mph - N/A   Mostly Cloudy
11:54 AM 62.1 °F 48.9 °F 62% 30.32 in 10.0 mi SE 6.9 mph - N/A   Overcast
12:54 PM 62.1 °F 48.9 °F 62% 30.30 in 10.0 mi SE 8.1 mph - N/A   Overcast
1:54 PM 64.0 °F 50.0 °F 60% 30.28 in 10.0 mi Variable 4.6 mph - N/A   Mostly Cloudy
2:54 PM 66.0 °F 51.1 °F 59% 30.25 in 10.0 mi Variable 4.6 mph - N/A   Partly Cloudy
3:54 PM 68.0 °F 52.0 °F 56% 30.23 in 10.0 mi Variable 6.9 mph - N/A   Partly Cloudy
4:54 PM 66.9 °F 52.0 °F 59% 30.22 in 10.0 mi ESE 8.1 mph - N/A   Clear
5:54 PM 66.0 °F 53.1 °F 63% 30.22 in 10.0 mi SE 8.1 mph - N/A   Partly Cloudy
6:54 PM 64.0 °F 53.1 °F 67% 30.22 in 10.0 mi SSE 5.8 mph - N/A   Overcast
7:54 PM 63.0 °F 54.0 °F 72% 30.22 in 10.0 mi SE 3.5 mph - N/A   Overcast
8:54 PM 63.0 °F 54.0 °F 72% 30.22 in 10.0 mi ESE 3.5 mph - N/A   Overcast
9:54 PM 63.0 °F 54.0 °F 72% 30.22 in 10.0 mi Calm Calm - N/A   Overcast
10:54 PM 62.1 °F 54.0 °F 75% 30.22 in 10.0 mi ESE 4.6 mph - N/A   Overcast
11:54 PM 62.1 °F 54.0 °F 75% 30.22 in 10.0 mi ESE 3.5 mph - N/A   Overcast